カタログに戻る

QIANFAN-137

運用中通信PO
NORAD 69083·PAYLOAD·🇨🇳 China

打ち上げ May 12, 2026 から Taiyuan Satellite Launch Center

Loading…

次のパス (今後24時間)

TLE

最新Source: Space-Track

元期: Sep 14, 2026, 22:16 UTC

1 69083U 26104L   26257.92822969  .00000111  00000-0  15258-3 0  9995
2 69083  88.9920 332.2101 0002283 101.8928 258.2479 13.51021478 17333

AllMySatでQIANFAN-137をリアルタイム追跡

Download on the App Store